Previsão horária em Cedar City

Hoje, 31 Julho, Sábado

Tempo Temperatura Precipitação Vento Pressão Humidade
00:00 +20°C° 0.1 mm 1 m/s 617 mmHg 73%
01:00 +20°C° 0.1 mm 1 m/s 617 mmHg 74%
02:00 +20°C° 0 mm 1 m/s 617 mmHg 73%
03:00 +19°C° 0 mm 1 m/s 617 mmHg 72%
04:00 +19°C° 0 mm 1 m/s 617 mmHg 72%
05:00 +21°C° 0 mm 1 m/s 617 mmHg 67%
06:00 +22°C° 0 mm 1 m/s 618 mmHg 62%
07:00 +23°C° 0 mm 1 m/s 619 mmHg 58%
08:00 +25°C° 0.1 mm 1 m/s 619 mmHg 52%
09:00 +26°C° 0.1 mm 2 m/s 619 mmHg 47%
10:00 +28°C° 0.1 mm 2 m/s 620 mmHg 41%
11:00 +28°C° 0.1 mm 3 m/s 620 mmHg 41%
12:00 +28°C° 0.1 mm 3 m/s 619 mmHg 41%
13:00 +28°C° 0.1 mm 3 m/s 619 mmHg 40%
14:00 +28°C° 0 mm 3 m/s 619 mmHg 39%
15:00 +29°C° 0 mm 3 m/s 619 mmHg 38%
16:00 +29°C° 0 mm 3 m/s 619 mmHg 37%
17:00 +27°C° 0.1 mm 2 m/s 618 mmHg 45%
18:00 +25°C° 0.1 mm 2 m/s 618 mmHg 53%
19:00 +23°C° 0.1 mm 2 m/s 618 mmHg 62%
20:00 +23°C° 0.3 mm 1 m/s 618 mmHg 64%
21:00 +22°C° 0.3 mm 1 m/s 618 mmHg 67%
22:00 +22°C° 0.3 mm 1 m/s 618 mmHg 70%
23:00 +21°C° 0.1 mm 1 m/s 618 mmHg 70%

Amanhã, 1 Agosto, Domingo

Tempo Temperatura Precipitação Vento Pressão Humidade
00:00 +21°C° 0.1 mm 1 m/s 618 mmHg 70%
01:00 +21°C° 0.1 mm 1 m/s 617 mmHg 71%
02:00 +20°C° 0.1 mm 1 m/s 617 mmHg 71%
03:00 +20°C° 0.1 mm 1 m/s 617 mmHg 72%
04:00 +20°C° 0.1 mm 1 m/s 617 mmHg 72%
05:00 +21°C° 0.1 mm 1 m/s 618 mmHg 68%
06:00 +22°C° 0.1 mm 1 m/s 618 mmHg 64%
07:00 +23°C° 0.1 mm 1 m/s 619 mmHg 60%
08:00 +25°C° 0.5 mm 1 m/s 619 mmHg 56%
09:00 +26°C° 0.5 mm 2 m/s 620 mmHg 52%
10:00 +27°C° 0.5 mm 2 m/s 620 mmHg 48%
11:00 +27°C° 0.3 mm 2 m/s 620 mmHg 45%
12:00 +28°C° 0.3 mm 3 m/s 620 mmHg 43%
13:00 +29°C° 0.3 mm 3 m/s 619 mmHg 40%
14:00 +28°C° 0.1 mm 3 m/s 619 mmHg 42%
15:00 +28°C° 0.1 mm 3 m/s 619 mmHg 43%
16:00 +27°C° 0.1 mm 3 m/s 619 mmHg 45%
17:00 +26°C° 0.3 mm 3 m/s 619 mmHg 51%
18:00 +24°C° 0.3 mm 2 m/s 618 mmHg 57%
19:00 +23°C° 0.3 mm 1 m/s 618 mmHg 64%
20:00 +23°C° 0.2 mm 1 m/s 618 mmHg 66%
21:00 +22°C° 0.2 mm 1 m/s 618 mmHg 68%
22:00 +21°C° 0.2 mm 1 m/s 618 mmHg 70%
23:00 +21°C° 0.2 mm 1 m/s 618 mmHg 71%

Depois de amanhã, 2 Agosto, Segunda-feira

Tempo Temperatura Precipitação Vento Pressão Humidade
00:00 +21°C° 0.2 mm 1 m/s 618 mmHg 72%
01:00 +20°C° 0.2 mm 1 m/s 617 mmHg 74%
02:00 +20°C° 0 mm 1 m/s 617 mmHg 74%
03:00 +19°C° 0 mm 1 m/s 617 mmHg 75%
04:00 +19°C° 0 mm 1 m/s 617 mmHg 75%
05:00 +21°C° 0 mm 1 m/s 618 mmHg 70%
06:00 +20°C° 0 mm 0 m/s 619 mmHg 64%
07:00 +22°C° 0 mm 0 m/s 619 mmHg 59%
08:00 +25°C° 0 mm 1 m/s 620 mmHg 53%
09:00 +27°C° 0 mm 1 m/s 620 mmHg 46%
10:00 +28°C° 0 mm 2 m/s 620 mmHg 40%
11:00 +29°C° 0 mm 2 m/s 620 mmHg 38%
12:00 +29°C° 0 mm 3 m/s 620 mmHg 35%
13:00 +30°C° 0 mm 3 m/s 620 mmHg 33%
14:00 +30°C° 0 mm 3 m/s 620 mmHg 31%
15:00 +30°C° 0 mm 3 m/s 619 mmHg 30%
16:00 +31°C° 0 mm 3 m/s 619 mmHg 28%
17:00 +29°C° 0 mm 2 m/s 618 mmHg 32%
18:00 +27°C° 0 mm 2 m/s 618 mmHg 37%
19:00 +25°C° 0 mm 1 m/s 617 mmHg 41%
20:00 +25°C° 0 mm 2 m/s 617 mmHg 43%
21:00 +24°C° 0 mm 2 m/s 617 mmHg 44%
22:00 +23°C° 0 mm 2 m/s 617 mmHg 46%
23:00 +23°C° 0 mm 2 m/s 617 mmHg 47%

3 Agosto, Terça-feira

Tempo Temperatura Precipitação Vento Pressão Humidade
00:00 +22°C° 0 mm 1 m/s 617 mmHg 48%
01:00 +22°C° 0 mm 1 m/s 617 mmHg 49%
02:00 +22°C° 0 mm 1 m/s 617 mmHg 50%
03:00 +21°C° 0 mm 1 m/s 617 mmHg 51%
04:00 +21°C° 0 mm 1 m/s 617 mmHg 52%
05:00 +23°C° 0 mm 1 m/s 618 mmHg 48%
06:00 +24°C° 0 mm 1 m/s 618 mmHg 44%
07:00 +26°C° 0 mm 1 m/s 619 mmHg 40%
08:00 +27°C° 0 mm 2 m/s 619 mmHg 37%
09:00 +29°C° 0 mm 3 m/s 620 mmHg 33%
10:00 +30°C° 0 mm 4 m/s 620 mmHg 30%
11:00 +32°C° 0 mm 4 m/s 620 mmHg 28%
12:00 +32°C° 0 mm 4 m/s 620 mmHg 26%
13:00 +33°C° 0 mm 4 m/s 619 mmHg 25%
14:00 +33°C° 0 mm 4 m/s 619 mmHg 24%
15:00 +33°C° 0 mm 5 m/s 619 mmHg 24%
16:00 +33°C° 0 mm 5 m/s 619 mmHg 23%
17:00 +30°C° 0 mm 4 m/s 618 mmHg 27%
18:00 +28°C° 0 mm 3 m/s 617 mmHg 31%
19:00 +26°C° 0 mm 3 m/s 617 mmHg 36%
20:00 +25°C° 0 mm 2 m/s 617 mmHg 36%
21:00 +24°C° 0 mm 2 m/s 617 mmHg 37%
22:00 +24°C° 0 mm 2 m/s 617 mmHg 37%
23:00 +23°C° 0 mm 2 m/s 616 mmHg 38%

4 Agosto, Quarta-feira

Tempo Temperatura Precipitação Vento Pressão Humidade
00:00 +23°C° 0 mm 2 m/s 616 mmHg 38%
01:00 +23°C° 0 mm 1 m/s 616 mmHg 38%
02:00 +22°C° 0 mm 1 m/s 616 mmHg 38%
03:00 +22°C° 0 mm 1 m/s 616 mmHg 38%
04:00 +21°C° 0 mm 1 m/s 616 mmHg 38%
05:00 +23°C° 0 mm 1 m/s 617 mmHg 35%
06:00 +23°C° 0 mm 0 m/s 618 mmHg 31%
07:00 +25°C° 0 mm 0 m/s 618 mmHg 28%
08:00 +29°C° 0 mm 1 m/s 619 mmHg 25%
09:00 +30°C° 0 mm 1 m/s 619 mmHg 23%
10:00 +32°C° 0 mm 2 m/s 620 mmHg 20%
11:00 +32°C° 0 mm 2 m/s 619 mmHg 19%
12:00 +34°C° 0 mm 3 m/s 619 mmHg 17%
13:00 +35°C° 0 mm 3 m/s 619 mmHg 16%
14:00 +35°C° 0 mm 3 m/s 619 mmHg 16%
15:00 +35°C° 0 mm 2 m/s 619 mmHg 17%
16:00 +34°C° 0 mm 2 m/s 618 mmHg 17%
17:00 +31°C° 0 mm 2 m/s 618 mmHg 20%
18:00 +29°C° 0 mm 2 m/s 617 mmHg 23%
19:00 +27°C° 0 mm 2 m/s 616 mmHg 27%
20:00 +26°C° 0 mm 2 m/s 616 mmHg 27%
21:00 +26°C° 0 mm 2 m/s 616 mmHg 27%
22:00 +25°C° 0 mm 2 m/s 616 mmHg 27%
23:00 +25°C° 0 mm 2 m/s 616 mmHg 27%

5 Agosto, Quinta-feira

Tempo Temperatura Precipitação Vento Pressão Humidade
00:00 +24°C° 0 mm 2 m/s 616 mmHg 27%
01:00 +24°C° 0 mm 2 m/s 616 mmHg 28%
02:00 +23°C° 0 mm 2 m/s 616 mmHg 28%
03:00 +23°C° 0 mm 1 m/s 616 mmHg 29%
04:00 +23°C° 0 mm 1 m/s 616 mmHg 29%
05:00 +25°C° 0 mm 1 m/s 617 mmHg 27%
06:00 +27°C° 0 mm 1 m/s 617 mmHg 24%
07:00 +27°C° 0 mm 0 m/s 618 mmHg 22%
08:00 +30°C° 0 mm 2 m/s 619 mmHg 20%
09:00 +31°C° 0 mm 3 m/s 619 mmHg 18%
10:00 +34°C° 0 mm 4 m/s 619 mmHg 17%
11:00 +34°C° 0 mm 5 m/s 619 mmHg 16%
12:00 +34°C° 0 mm 6 m/s 619 mmHg 16%
13:00 +35°C° 0 mm 6 m/s 619 mmHg 16%
14:00 +34°C° 0 mm 6 m/s 618 mmHg 16%
15:00 +34°C° 0 mm 6 m/s 618 mmHg 16%
16:00 +34°C° 0 mm 6 m/s 618 mmHg 17%
17:00 +30°C° 0 mm 5 m/s 617 mmHg 20%
18:00 +28°C° 0 mm 4 m/s 617 mmHg 24%
19:00 +26°C° 0 mm 3 m/s 616 mmHg 27%
20:00 +25°C° 0 mm 3 m/s 616 mmHg 27%
21:00 +25°C° 0 mm 3 m/s 616 mmHg 26%
22:00 +24°C° 0 mm 3 m/s 616 mmHg 25%
23:00 +24°C° 0 mm 2 m/s 615 mmHg 26%
Mostrar mais

Necessitamos do seu Consentimento

A Meteoprog e os seus Fornecedores de Serviços podem armazenar e aceder a dados pessoais como cookies, identificadores do dispositivo ou outras tecnologias semelhantes existentes no seu dispositivo e processar estes dados para personalizar conteúdos e anúncios, assim como funcionalidades nas redes sociais e análise de tráfego.

  • Armazenar e/ou aceder a informações no seu dispositivo

    Os cookies, identificadores do dispositivo ou outras informações podem ser armazenados ou acedidos no seu dispositivo, para os fins acima indicados.

  • Anúncios e conteúdos personalizados, medição de anúncios e conteúdos, dados sobre o público-alvo e desenvolvimento de produtos

    Os anúncios e os conteúdos podem ser personalizados com base num perfil. Podem ser adicionados dados adicionais para uma maior personalização dos anúncios e dos conteúdos. A eficácia dos anúncios e dos conteúdos pode ser medida. Podem ser obtidas informações sobre o público que visualizou os anúncios e os conteúdos. Estes dados podem ser usados para desenvolver ou melhorar sistemas, softwares ou a experiência do utilizador.

Ao clicar em "Eu concordo”, permitirá o uso de cookies, identificadores do dispositivo e web beacons mencionados ou outras tecnologias semelhantes. As configurações do navegador do seu dispositivo podem ser alteradas.

Para certos fins, podem ser invocados interesses legítimos ao invés de consentimento. Pode ler mais informação sobre este assunto na nossa Política de Privacidade e Cookies.